Wind_Speed
52 55 57 57 56 59 61 61 61 62 62 61 60 63 63 61 57 57 58 59 61 62 62 59 63 63 62 57 61 57 55 55 59 59 61 62 56 52 48 49 51 42 45
53 56 56 57 59 61 62 61 59 62 61 61 61 59 53 54 53 55 55 56 58 58 61 61 59 62 61 69 59 51 58 61 60 60 58 59 51 50 46 46 47 43 49
54 54 56 58 60 59 57 57 58 61 59 58 55 54 55 56 56 53 53 55 56 57 58 60 61 62 61 62 59 65 58 58 67 53 53 62 52 49 48 47 41 43 50
52 54 56 57 54 53 56 57 59 58 55 51 51 55 56 57 54 57 62 62 65 61 57 57 60 66 72 64 70 58 65 51 58 52 58 58 45 44 49 45 39 43 45
51 52 54 51 53 56 57 56 56 55 53 51 54 54 54 54 53 50 46 43 41 43 42 47 54 67 74 68 66 61 61 60 52 50 61 56 48 48 49 47 45 51 49
50 52 49 50 54 54 55 55 53 54 50 50 51 52 51 49 45 39 37 34 28 26 22 12 20 36 49 60 59 59 54 47 42 58 55 52 48 41 42 44 42 41 38
50 50 46 52 51 50 52 52 55 49 45 46 46 47 45 43 36 31 24 18 14 18 17 17 16 21 37 47 53 53 50 39 43 43 51 43 36 38 44 42 42 35 38
49 44 47 47 47 48 52 57 52 42 41 40 41 38 40 36 29 23 15 11 9 6 3 7 10 19 38 48 49 45 44 48 38 36 32 28 33 32 31 32 34 35 35
43 44 45 42 45 49 53 57 41 34 34 35 35 35 32 28 22 16 10 7 6 1 4 8 10 12 22 31 32 29 34 34 30 30 33 32 30 27 32 36 37 33 34
41 42 41 42 45 49 55 50 30 30 29 30 30 27 25 19 13 10 6 6 10 13 16 12 8 5 9 16 21 26 30 32 34 34 34 29 29 30 31 33 33 34 35
39 41 39 41 45 49 49 28 24 24 22 23 21 18 15 9 2 3 5 8 11 13 14 16 11 6 15 19 20 21 24 30 35 30 31 35 28 38 38 35 36 36 31
38 37 35 40 42 50 29 21 19 16 15 15 13 11 7 5 4 9 11 13 15 13 12 12 12 15 19 21 22 23 24 24 26 31 33 34 33 37 39 34 32 30 32
33 30 31 37 39 36 21 17 12 8 6 8 11 12 11 9 6 10 13 15 14 12 14 15 18 19 20 20 22 23 22 22 28 34 30 37 40 36 28 28 31 33 33
28 26 27 33 39 23 16 11 8 2 4 8 11 15 16 17 15 12 12 14 14 13 14 14 12 13 16 18 20 21 22 24 24 26 32 36 31 27 27 27 28 29 30
24 23 24 28 33 19 11 5 4 1 4 7 9 10 12 12 13 15 14 14 15 15 13 13 14 17 18 16 15 17 21 24 27 31 33 29 25 28 29 28 27 28 27
23 20 20 20 30 18 5 2 4 3 3 5 8 9 10 11 11 11 10 10 9 8 7 13 16 19 16 12 12 15 20 25 30 30 24 24 26 25 25 25 25 26 25
18 19 17 15 15 15 5 4 5 5 7 9 9 10 11 11 12 12 9 8 5 6 8 7 10 14 15 15 19 23 21 18 16 20 23 23 23 23 24 24 23 24 25
15 14 14 14 13 10 10 6 5 5 6 8 9 10 11 11 11 11 7 6 6 7 8 10 10 9 10 14 15 16 19 22 23 23 21 20 20 21 21 22 23 25 26
12 12 12 11 11 11 10 8 5 4 4 5 6 7 9 9 7 6 5 3 5 5 6 6 6 7 7 9 11 13 16 19 23 26 29 30 28 25 24 25 25 26 27
10 10 10 10 8 9 8 7 6 6 4 2 2 2 2 2 2 2 2 1 1 1 1 2 3 5 7 8 10 11 12 14 16 19 23 25 27 29 30 30 30 29 30
9 9 10 10 9 9 8 8 5 3 3 3 3 3 4 2 0 0 1 2 2 3 3 3 3 4 5 6 8 9 11 14 16 17 18 19 21 22 22 21 21 22 25
10 9 9 8 9 9 8 9 8 6 3 1 2 1 1 1 1 1 1 1 0 1 2 3 4 5 5 6 7 7 8 9 10 12 13 15 16 17 18 19 22 23 24
9 9 8 8 6 6 7 7 6 5 4 4 3 2 2 2 1 1 1 2 3 3 2 2 2 2 3 3 3 4 5 6 7 9 10 11 13 14 16 17 18 19 20
7 8 7 8 7 5 5 5 3 2 1 2 2 2 3 3 2 3 3 3 4 4 4 4 3 3 2 2 2 2 3 4 5 6 8 9 11 12 14 15 16 17 18
8 8 7 7 6 6 5 5 5 4 3 2 2 1 1 2 2 1 1 1 0 0 0 1 1 1 1 2 2 3 4 5 7 8 9 10 11 13 14 16 17 17 17
7 7 7 7 7 6 6 5 4 5 4 4 3 3 2 1 0 0 0 0 1 1 1 2 2 2 2 2 3 4 5 6 7 7 8 10 11 12 13 14 15 15 16
Wind_Direction
304 306 308 307 305 304 304 302 301 301 301 300 299 296 291 289 287 284 280 275 271 266 256 256 258 254 259 255 246 253 257 260 263 261 256 242 230 236 239 237 235 239 225
308 309 307 306 306 305 303 304 304 304 302 300 298 295 293 294 289 286 283 279 273 266 262 254 251 253 252 254 254 242 252 257 257 262 258 246 240 238 235 230 234 237 224
308 305 306 308 308 307 306 306 305 304 303 299 296 295 295 295 292 290 284 282 275 269 262 257 253 249 245 250 241 247 251 256 253 262 261 249 234 234 230 225 232 225 231
305 307 309 310 308 308 309 308 308 309 306 300 298 297 298 300 295 294 291 286 280 272 264 254 249 241 238 242 246 241 249 246 253 259 255 237 222 226 225 229 219 221 221
307 309 310 309 311 312 310 311 310 311 307 302 300 301 305 303 304 300 292 285 277 267 260 255 250 244 241 240 244 235 240 247 245 257 247 232 223 218 226 213 227 230 233
311 310 310 309 313 313 313 312 312 310 306 302 305 306 305 306 304 297 289 280 262 271 253 252 245 228 228 228 234 235 243 239 248 248 229 225 224 218 216 214 219 228 219
312 310 308 313 315 315 317 317 316 310 306 306 310 310 311 306 301 290 264 263 266 266 254 278 235 238 230 230 233 237 242 254 255 249 236 227 210 208 219 233 236 228 214
313 310 312 315 319 318 318 319 316 307 306 312 311 318 311 306 296 283 266 228 209 130 177 267 268 246 230 230 228 227 244 236 234 232 230 227 233 228 225 223 212 204 192
312 312 315 316 319 320 318 319 311 307 315 316 324 318 314 305 291 275 261 192 136 349 167 187 190 228 228 234 230 240 232 230 207 208 217 224 227 214 211 184 186 185 187
312 315 317 318 320 321 318 314 312 319 319 329 320 319 317 308 289 275 261 211 149 142 120 110 115 169 202 209 213 223 214 200 202 210 212 201 186 186 184 185 191 192 196
314 318 318 321 316 317 318 311 319 316 329 325 325 323 321 330 8 137 150 150 126 108 113 119 122 189 226 216 203 194 193 200 204 208 191 185 188 185 189 194 195 192 205
319 318 316 320 318 320 314 313 318 317 338 338 344 340 338 13 74 108 115 116 105 106 119 138 154 171 195 190 192 203 212 210 200 193 187 184 185 194 195 193 197 202 201
322 318 318 324 324 319 307 318 310 326 1 22 33 45 47 50 66 96 104 104 106 117 135 142 152 161 171 179 183 186 190 190 188 187 193 193 197 196 185 191 199 203 208
326 322 324 330 329 322 317 321 299 314 106 86 71 65 62 65 68 79 93 97 100 101 110 120 129 145 151 151 151 159 167 174 186 195 198 200 191 180 195 203 206 209 213
333 328 328 329 342 344 337 323 302 126 125 106 87 78 78 77 83 82 81 89 98 110 124 128 133 142 148 154 167 180 190 197 196 197 192 179 185 198 203 204 207 211 217
334 338 327 336 357 355 353 39 66 57 92 83 77 69 73 73 69 68 80 90 84 82 128 140 150 163 176 187 196 200 197 196 192 185 183 192 201 204 207 210 213 217 222
332 341 339 352 2 1 0 47 77 48 36 37 53 58 60 64 62 62 68 72 73 97 106 146 170 182 186 182 174 171 167 168 180 195 202 205 209 212 214 218 221 226 230
327 340 352 356 359 354 351 358 40 46 33 34 43 47 48 46 54 68 76 113 121 115 125 128 133 149 178 189 185 183 183 188 197 205 210 212 215 219 224 228 232 235 237
321 338 357 3 359 5 3 1 3 13 51 67 59 48 44 40 40 53 79 112 142 157 163 162 162 169 178 188 200 208 214 219 221 220 218 219 221 224 228 232 235 238 239
311 335 352 3 6 4 6 7 1 346 331 349 42 53 45 34 50 36 9 319 215 197 200 199 213 218 222 226 226 224 225 231 233 232 233 236 237 236 238 239 239 239 240
306 327 342 351 11 23 14 5 357 344 322 308 298 289 294 301 204 295 300 296 305 310 305 294 279 272 270 262 254 248 245 242 241 240 237 239 242 245 248 246 246 250 255
293 304 319 332 345 2 15 14 3 348 327 262 237 230 275 282 277 160 144 134 125 292 284 277 276 276 278 277 273 268 262 258 254 250 248 244 243 246 250 254 255 253 254
285 289 295 306 318 339 356 6 9 14 18 11 11 25 44 41 49 54 96 125 129 129 128 137 150 159 176 200 220 228 235 238 239 241 244 249 253 254 254 255 256 258 259
313 296 288 290 294 312 332 334 338 341 24 54 47 37 31 23 35 53 69 75 87 105 114 119 127 134 147 162 185 217 233 244 250 249 249 251 255 258 261 263 266 267 267
300 297 283 273 276 293 304 310 289 253 219 195 153 128 117 114 119 124 91 73 104 281 308 302 289 299 303 299 292 287 284 280 279 280 279 278 278 277 275 273 272 272 271
291 284 275 270 275 286 299 300 289 260 233 191 167 157 150 154 184 247 281 307 304 313 332 343 348 346 340 333 319 307 301 297 294 292 288 285 283 282 281 281 282 282 281
Height
3025 3021 3016 3011 3006 2999 2993 2987 2980 2972 2967 2960 2954 2947 2940 2934 2932 2927 2925 2925 2921 2922 2925 2929 2931 2936 2936 2941 2948 2954 2960 2965 2972 2977 2981 2989 2995 3002 3007 3013 3021 3028 3033
3016 3011 3006 3000 2994 2987 2979 2971 2965 2958 2953 2945 2937 2930 2923 2919 2916 2910 2905 2904 2902 2901 2905 2909 2911 2919 2920 2927 2934 2940 2947 2951 2956 2965 2969 2979 2985 2993 3000 3005 3013 3016 3024
3007 3000 2994 2989 2981 2974 2967 2961 2953 2944 2938 2930 2921 2915 2908 2902 2897 2892 2888 2884 2881 2880 2883 2887 2892 2900 2904 2910 2916 2928 2932 2937 2942 2952 2959 2966 2970 2984 2992 2995 3003 3008 3014
2997 2992 2985 2978 2970 2963 2954 2947 2940 2931 2922 2915 2908 2901 2894 2886 2879 2873 2867 2861 2858 2858 2861 2864 2870 2878 2886 2894 2904 2912 2920 2927 2930 2939 2946 2955 2965 2973 2981 2986 2993 2998 3003
2987 2982 2974 2966 2959 2951 2942 2933 2926 2917 2909 2901 2893 2886 2878 2870 2861 2854 2848 2844 2841 2840 2842 2843 2844 2852 2865 2876 2887 2894 2903 2911 2920 2928 2935 2944 2952 2960 2968 2981 2985 2989 2995
2978 2971 2963 2956 2949 2940 2931 2921 2912 2903 2896 2890 2882 2873 2866 2857 2850 2845 2839 2835 2833 2830 2831 2831 2831 2836 2848 2862 2875 2885 2892 2902 2911 2917 2927 2936 2945 2954 2964 2971 2976 2979 2986
2967 2960 2954 2945 2937 2929 2919 2910 2901 2892 2885 2879 2872 2863 2855 2848 2844 2839 2834 2830 2827 2824 2824 2827 2829 2834 2842 2853 2863 2874 2885 2894 2902 2912 2921 2930 2940 2949 2960 2965 2971 2975 2983
2957 2950 2943 2935 2928 2918 2909 2899 2890 2884 2877 2870 2865 2854 2848 2843 2839 2834 2831 2827 2824 2823 2825 2826 2828 2834 2842 2850 2862 2874 2882 2890 2902 2911 2918 2930 2940 2947 2955 2963 2967 2971 2978
2948 2942 2934 2926 2919 2910 2902 2893 2885 2878 2872 2866 2857 2851 2844 2839 2835 2832 2829 2826 2824 2826 2826 2826 2830 2838 2846 2853 2863 2872 2880 2889 2898 2909 2920 2929 2935 2940 2948 2954 2961 2965 2973
2940 2933 2925 2918 2912 2905 2896 2888 2881 2874 2868 2861 2856 2849 2842 2837 2833 2831 2830 2828 2827 2828 2829 2832 2836 2841 2848 2856 2864 2871 2881 2890 2900 2909 2918 2924 2930 2937 2946 2953 2959 2965 2970
2931 2925 2918 2913 2907 2898 2890 2882 2877 2873 2866 2861 2855 2850 2844 2839 2834 2832 2831 2831 2831 2831 2833 2836 2841 2846 2853 2859 2867 2875 2885 2893 2901 2908 2914 2921 2927 2935 2942 2948 2955 2962 2970
2925 2917 2913 2908 2901 2893 2886 2880 2875 2871 2866 2861 2857 2853 2848 2843 2839 2836 2835 2835 2835 2837 2839 2842 2846 2852 2860 2866 2873 2880 2886 2892 2899 2906 2913 2919 2925 2933 2938 2946 2953 2961 2966
2919 2912 2908 2902 2894 2888 2882 2878 2875 2870 2867 2864 2861 2856 2852 2848 2845 2843 2841 2841 2841 2843 2845 2847 2851 2855 2861 2866 2872 2878 2884 2891 2898 2906 2913 2919 2923 2931 2938 2945 2951 2956 2961
2913 2908 2902 2899 2894 2882 2878 2876 2875 2871 2868 2866 2864 2860 2858 2854 2851 2850 2848 2847 2848 2850 2852 2854 2857 2860 2864 2869 2874 2880 2886 2893 2900 2906 2911 2918 2924 2931 2938 2944 2949 2954 2958
2911 2906 2900 2895 2889 2880 2877 2877 2876 2874 2872 2869 2867 2865 2861 2860 2858 2857 2857 2856 2856 2857 2858 2860 2863 2866 2871 2875 2880 2884 2889 2895 2900 2905 2912 2918 2925 2931 2936 2940 2944 2949 2954
2910 2902 2900 2894 2887 2882 2880 2879 2877 2876 2875 2873 2871 2869 2866 2865 2864 2863 2862 2862 2863 2863 2865 2866 2869 2872 2876 2880 2883 2887 2891 2896 2901 2906 2912 2918 2924 2929 2933 2937 2941 2945 2948
2908 2904 2899 2894 2890 2887 2884 2881 2879 2879 2878 2877 2875 2873 2872 2870 2870 2869 2869 2869 2869 2869 2869 2871 2874 2876 2878 2882 2885 2889 2894 2899 2904 2908 2913 2917 2921 2925 2930 2933 2936 2940 2943
2907 2903 2898 2894 2891 2890 2887 2884 2882 2881 2881 2880 2879 2877 2876 2875 2875 2874 2874 2874 2875 2875 2876 2877 2879 2880 2882 2885 2888 2891 2894 2898 2903 2907 2911 2914 2918 2922 2926 2929 2933 2935 2937
2904 2901 2897 2894 2892 2889 2887 2886 2885 2884 2883 2882 2881 2880 2879 2878 2878 2878 2878 2878 2878 2879 2880 2881 2882 2883 2885 2887 2889 2892 2895 2897 2900 2902 2905 2909 2913 2917 2920 2924 2926 2928 2931
2902 2899 2897 2895 2892 2890 2888 2885 2884 2885 2885 2884 2883 2882 2881 2880 2880 2880 2880 2880 2880 2881 2881 2882 2884 2885 2887 2888 2890 2891 2893 2895 2897 2899 2902 2905 2908 2911 2914 2916 2919 2921 2923
2899 2897 2895 2895 2893 2891 2888 2886 2885 2884 2884 2885 2884 2883 2883 2882 2881 2881 2881 2882 2882 2882 2883 2883 2884 2885 2886 2887 2889 2890 2892 2894 2895 2897 2900 2902 2905 2907 2909 2911 2912 2914 2916
2896 2895 2894 2894 2893 2891 2890 2888 2887 2886 2885 2884 2884 2884 2884 2884 2884 2883 2883 2882 2883 2884 2884 2884 2885 2885 2886 2887 2888 2889 2891 2892 2894 2896 2897 2899 2901 2902 2903 2905 2906 2908 2909
2893 2892 2892 2892 2892 2892 2890 2889 2888 2888 2888 2887 2886 2886 2885 2885 2885 2885 2885 2884 2884 2884 2885 2886 2886 2887 2887 2888 2889 2890 2891 2892 2894 2895 2896 2897 2898 2899 2900 2901 2902 2902 2903
2891 2890 2890 2890 2890 2890 2890 2890 2890 2889 2889 2888 2888 2888 2888 2888 2888 2887 2887 2887 2888 2887 2888 2888 2889 2889 2890 2890 2891 2891 2892 2892 2893 2894 2895 2895 2895 2895 2896 2896 2896 2896 2896
2889 2889 2889 2889 2888 2888 2889 2889 2889 2889 2889 2889 2889 2889 2889 2889 2889 2889 2890 2890 2890 2890 2890 2890 2890 2890 2890 2891 2891 2891 2891 2891 2891 2891 2892 2892 2892 2892 2892 2892 2892 2892 2892
2888 2888 2888 2887 2887 2886 2887 2888 2889 2889 2889 2889 2889 2889 2889 2890 2889 2890 2890 2890 2890 2890 2890 2889 2889 2889 2889 2889 2889 2889 2889 2889 2889 2889 2889 2889 2889 2889 2889 2889 2888 2887 2887